カタログに戻る

STARLINK-37616

運用中通信SSO
NORAD 69040·PAYLOAD·🇺🇸 United States

打ち上げ May 6, 2026 から Vandenberg Space Force Base

Loading…

次のパス (今後24時間)

TLE

最新Source: CelesTrak SupGP

元期: Sep 15, 2026, 03:17 UTC

1 69040C 26101R   26258.13729167 -.00011378  00000+0 -35308-3 0  2589
2 69040  97.2852 111.6475 0002002  94.4936 265.8029 15.33453587    15

AllMySatでSTARLINK-37616をリアルタイム追跡

Download on the App Store